MinXSS 2 (43817 NORAD) Tracking and Keplerian Element Data

This shows tracking and keplerian element data for the satellite.

Feedback or suggestion? Click here.




ElementValue
Catalog43817
NameMinXSS 2
Epoch Orbit516
Epoch Day10.35996421
Epoch Year2019
RAAN84.1554
Inclination97.765
Eccentricity0.0014747
Argument of Perigee127.1418
Mean Anonmoly233.1152
Mean Motion14.95309902
Decay Rate1.024E-05
L11 43817U 18099BM 19010.35996421 .00001024 00000-0 97985-4 0 9999
L22 43817 097.7650 084.1554 0014747 127.1418 233.1152 14.95309902005164

Live tracking and technical data element details for MinXSS 2 (NORAD 43817). MinXSS 2 can be tracked NOW for your location showing map with azimuth and elevation plus other details from your city location.

Track the satellite on the map from your city or location and see movement details for azimuth, elevation, latitude, longitude, range, height, and movement on the map or in text.







IsCatalogInMostPopularTable: catalog: 43817, numindb: 18
Update: records affected: 1



GetName: 43817 MinXSS 2

Hit Count: updated at: Thu, 17 Jan 2019 14:53:13 GMT